SCP
-0 -0 -0 -0 -0 -0 0 -0 -0 -0 -0 -0 -0 -0 -0 -0 -0 0 -0 -0 -0 -0 -0 0 0 0 0 -0 0 0 0 0 0 0 0 0 0 0 0 0 0 0 0
-0 -0 -0 -0 -0 -0 -0 0 -0 -0 -0 -0 0 0 0 0 0 0 0 0 0 0 0 0 0 -0 -0 0 0 0 0 0 0 0 0 0 0 0 0 0 0 0 0
-0 -0 -0 -0 -0 -0 -0 -0 0 0 0 0 0 0 0 0 0 0 0 0 0 0 0 0 0 0 0 0 0 0 0 -0 -0 -0 -0 -0 0 0 0 0 0 0 0
-0 -0 -0 -0 -0 -0 -0 0 0 0 0 0 0 0 0 0 0 0 0 0 0 0 0 0 0 0 0 0 0 0 0 -0 -0 -0 -0 0 0 0 0 0 0 0 0
-0 -0 -0 -0 -0 -0 0 0 0 0 0 0 0 0 0 0 0 0 0 0 0 0 0 0 0 0 0 0 0 0 0 -0 -0 -0 0 0 0 0 0 0 0 0 0
0 0 -0 -0 -0 -0 0 0 0 0 0 0 0 0 0 0 0 0 0 0 0 0 0 0 0 0 0 0 0 0 0 0 -0 0 0 0 0 0 0 0 0 0 0
0 0 -0 -0 -0 0 -0 0 0 0 0 0 0 1 0 0 0 0 0 0 0 0 0 0 0 0 0 0 0 0 0 0 0 -0 -0 0 0 0 0 0 0 0 0
0 0 0 -0 -0 -0 -0 0 0 0 0 0 0 0 0 0 0 0 0 0 0 0 0 0 0 0 0 0 0 0 0 0 0 -0 0 0 0 0 0 0 0 0 0
0 0 0 0 0 -0 0 0 0 0 0 0 0 0 0 0 0 0 0 0 0 0 0 0 0 0 0 0 0 0 0 0 0 0 0 0 0 0 0 0 0 0 1
0 0 0 0 0 0 0 0 0 0 0 0 0 1 0 0 0 0 0 0 0 0 0 0 0 0 0 0 0 0 0 0 0 0 0 1 1 0 0 0 0 0 1
0 0 0 0 0 0 0 0 0 0 0 0 1 1 0 0 0 0 0 0 0 0 0 0 0 1 0 0 0 0 0 0 0 0 0 1 1 0 0 0 0 1 0
0 0 1 1 0 0 0 0 0 0 0 1 0 0 0 0 0 0 0 0 0 0 1 1 1 1 1 0 0 0 0 0 0 0 1 1 1 0 0 0 0 0 1
0 0 1 3 1 0 0 1 1 0 0 0 0 0 0 0 0 0 0 0 1 0 1 1 1 1 0 0 0 1 0 0 0 0 1 1 1 0 0 0 0 0 0
0 0 1 0 3 1 0 1 1 1 1 1 0 0 0 0 0 0 0 0 0 0 0 0 1 1 1 0 0 1 1 1 0 0 1 1 1 0 0 0 0 0 0
0 0 0 2 4 4 4 3 2 1 2 1 1 0 0 1 0 0 0 0 0 0 0 0 1 1 1 1 0 1 1 1 1 1 1 1 1 0 0 0 0 0 0
1 1 1 2 4 4 3 2 6 3 3 3 2 2 1 1 1 1 0 1 1 0 0 0 0 1 2 2 1 2 1 2 2 1 1 1 1 1 0 0 0 0 0
0 1 2 2 8 5 5 5 3 3 3 4 4 5 2 2 2 1 1 0 0 1 1 1 0 1 2 3 3 2 2 2 1 1 1 1 1 1 1 0 0 0 0
1 1 1 0 6 7 6 6 5 3 4 4 3 5 7 3 3 4 2 1 1 1 2 1 2 2 3 3 2 1 3 2 1 1 1 0 1 0 1 0 0 0 0
1 2 2 2 2 8 9 6 5 4 5 4 5 4 8 6 4 3 3 2 2 1 0 1 2 2 3 3 2 2 2 2 2 1 1 0 1 1 1 0 0 0 0
3 7 6 4 5 8 7 5 3 4 4 5 4 6 9 8 6 4 5 2 4 1 1 2 2 2 2 2 1 2 2 2 1 1 1 1 1 1 1 0 0 0 0
6 10 8 5 3 7 7 4 2 3 3 5 5 6 8 9 7 5 3 3 2 2 1 2 2 2 2 1 2 2 1 1 1 1 1 1 1 0 0 0 0 0 0
6 6 7 5 4 4 4 3 5 4 2 4 8 8 7 8 6 5 3 2 2 2 2 2 3 2 1 1 2 2 1 1 1 1 1 1 1 0 0 0 0 0 0
3 5 5 4 4 2 3 4 5 4 8 15 14 8 7 7 5 3 2 2 2 1 2 3 3 2 1 2 2 1 1 1 1 1 1 0 1 1 0 0 0 0 0
1 2 6 5 4 4 5 5 5 4 5 9 13 8 6 5 3 2 2 1 2 2 2 2 2 1 1 2 1 1 1 1 1 0 1 1 0 0 0 0 0 0 0
0 0 1 5 7 5 6 5 4 7 7 8 10 9 5 4 2 2 2 1 2 2 1 1 1 1 1 1 1 1 1 0 0 0 0 0 0 0 0 0 0 0 -0
0 0 1 2 2 5 6 7 6 5 4 5 7 6 4 3 2 2 1 1 1 1 1 2 2 2 1 1 1 1 1 0 0 0 0 0 0 0 0 0 0 0 0
Wind_Speed_500mb
41 43 35 32 30 34 40 41 42 40 39 37 35 32 29 25 22 20 18 17 14 13 11 9 7 6 4 6 8 10 11 12 13 13 10 8 6 5 4 0 7 2 4
58 52 41 33 29 31 36 40 41 41 37 34 32 30 26 24 19 17 14 13 13 13 11 10 9 11 7 5 7 9 10 9 10 10 9 10 8 10 8 5 7 10 9
62 57 48 37 31 30 31 34 37 38 37 33 30 27 24 21 19 15 13 10 8 9 10 9 9 10 9 7 6 8 9 10 8 5 6 6 7 15 17 11 8 9 9
60 57 51 41 35 32 32 32 33 34 34 32 29 27 24 20 17 14 11 9 7 7 7 8 8 8 7 7 6 6 8 10 11 11 15 16 5 21 22 18 13 10 9
56 55 52 43 38 35 35 33 33 32 33 32 30 28 25 22 18 15 12 9 7 5 4 4 3 5 6 7 7 7 8 8 12 14 16 6 13 17 18 17 17 15 11
53 50 47 43 39 36 34 34 33 33 32 32 32 30 27 25 22 18 14 12 11 9 7 4 3 1 3 6 9 11 11 8 8 13 5 18 16 32 21 22 24 20 17
51 49 46 41 40 38 36 35 35 36 36 35 34 32 30 28 24 21 19 17 16 14 11 10 9 5 5 7 10 12 13 10 3 2 4 19 19 23 26 28 27 27 23
49 49 47 41 41 41 39 37 37 37 38 37 36 35 33 31 29 27 25 24 22 20 17 19 14 10 9 8 9 10 12 11 9 18 3 12 27 29 33 26 22 28 27
39 44 45 43 43 43 42 39 38 38 39 38 38 38 38 37 35 33 33 32 28 27 25 23 18 15 14 12 12 12 12 11 11 13 16 22 36 31 31 30 22 25 28
46 36 42 44 43 46 47 46 42 41 40 40 42 43 43 42 42 41 40 39 36 34 32 28 23 21 18 16 17 14 16 18 13 11 11 20 31 33 32 35 31 22 25
57 48 39 39 40 44 48 49 48 47 45 45 47 49 50 51 51 49 49 46 44 42 38 34 29 27 23 22 19 11 19 26 6 15 12 24 33 35 37 37 35 24 25
55 52 47 44 36 32 40 42 43 49 50 51 54 56 59 59 58 54 56 53 51 48 45 40 36 33 30 28 22 16 15 7 5 17 31 36 35 39 43 43 35 27 25
48 55 55 47 41 32 28 34 33 37 43 49 57 61 63 64 62 61 61 58 61 58 55 51 46 42 38 33 19 30 14 7 9 14 31 34 37 36 37 34 32 29 27
53 41 2 44 49 37 29 42 41 44 41 41 44 49 61 67 66 67 66 64 62 62 62 58 54 47 43 33 22 24 20 23 30 18 31 34 32 33 33 30 27 30 29
21 29 42 73 42 32 43 44 49 46 39 39 41 40 43 52 55 62 65 61 64 53 53 62 56 44 37 27 27 35 38 33 30 30 32 35 38 35 35 29 22 28 31
13 12 16 25 36 40 38 47 51 49 55 47 47 47 49 55 52 51 56 64 58 58 48 44 47 43 45 29 32 42 40 40 34 31 31 38 40 37 35 31 26 25 30
46 34 31 25 28 44 44 42 42 45 48 54 55 55 57 63 60 55 55 60 63 54 51 50 45 45 52 44 49 36 44 43 47 43 41 41 40 41 36 32 29 27 30
36 36 34 37 38 51 58 56 51 45 46 47 49 55 64 68 71 62 59 64 63 65 51 50 50 52 47 52 42 41 46 48 40 42 37 39 40 42 37 41 32 27 30
64 60 58 59 52 40 44 46 49 50 49 49 47 51 58 68 70 67 62 62 57 60 70 55 64 53 56 45 48 38 48 46 44 37 27 33 38 35 35 42 36 30 27
56 55 50 53 60 48 40 49 54 56 60 56 56 58 56 63 70 68 61 59 58 57 62 61 59 65 55 47 39 42 39 39 34 36 32 49 60 56 56 41 35 27 28
77 66 59 65 55 49 50 57 66 71 68 63 60 58 56 63 69 70 63 61 64 60 65 58 56 53 55 52 38 43 42 38 38 39 37 41 48 47 40 49 41 32 29
57 51 52 57 61 58 61 71 69 56 52 53 53 54 55 63 67 67 62 57 56 62 58 59 59 62 62 38 49 41 31 27 38 42 35 34 41 42 37 41 42 37 33
44 49 53 60 62 59 60 66 64 59 62 43 51 51 52 61 67 68 57 56 56 56 56 63 57 63 48 48 50 32 13 14 15 26 28 33 43 45 31 32 44 20 35
54 46 44 49 56 62 60 67 65 65 65 64 46 51 54 62 67 60 47 56 48 50 55 55 65 64 52 42 30 32 30 26 9 9 15 20 25 25 25 37 36 26 43
62 67 73 71 72 71 72 62 72 61 54 40 48 51 52 51 52 55 54 57 51 48 50 51 43 44 51 41 29 23 25 15 26 27 22 20 29 19 22 31 35 45 37
81 70 65 72 78 77 76 67 64 59 58 48 51 58 62 56 55 55 54 54 47 44 42 45 35 46 41 28 27 20 21 17 25 27 25 25 19 14 21 18 29 30 31
Wind_Direction_500mb
147 147 155 161 156 149 143 144 142 141 139 139 138 136 135 130 127 123 118 113 110 103 93 82 64 43 329 279 261 262 265 267 271 268 275 298 319 331 315 188 141 196 180
150 145 153 166 163 156 152 153 153 149 148 148 145 142 144 142 143 137 130 126 119 111 104 97 89 77 58 15 336 313 300 289 284 283 277 274 298 309 290 263 223 209 211
149 145 154 169 171 163 160 162 163 160 157 156 153 152 155 158 155 158 154 147 135 115 104 95 87 80 70 57 28 4 348 341 330 329 21 9 315 322 294 260 261 249 220
149 151 158 167 174 169 168 174 175 174 170 167 167 168 170 173 166 171 172 168 157 145 117 88 67 66 69 56 38 25 18 15 24 60 77 50 223 286 298 263 253 249 252
153 156 157 170 182 178 176 180 184 185 184 183 184 186 186 185 187 186 187 189 184 179 154 126 87 50 31 27 15 7 17 33 68 101 61 295 212 271 272 271 250 240 243
158 165 169 179 189 192 188 188 191 195 196 197 200 199 198 202 201 199 200 202 208 210 201 203 229 304 355 348 354 348 351 13 97 98 16 304 289 259 270 275 249 248 241
161 172 175 188 197 200 199 197 200 201 206 207 210 213 211 213 214 212 214 215 220 221 219 224 231 254 292 323 333 333 331 327 269 75 139 282 274 287 290 284 256 236 242
170 174 174 187 201 206 207 205 206 210 213 215 217 221 222 221 222 224 224 226 226 227 227 228 229 235 256 279 297 309 309 306 281 173 188 260 279 284 293 298 261 235 233
174 182 182 192 201 209 213 213 212 215 219 224 226 228 229 228 229 230 231 231 230 230 230 231 233 238 251 263 278 288 299 298 294 267 208 267 265 280 290 302 284 245 230
174 189 200 200 206 210 215 217 219 220 225 229 234 235 234 235 234 234 235 234 232 234 234 235 239 242 248 264 278 294 306 306 309 14 241 274 265 274 281 290 290 252 233
175 179 217 217 210 215 218 222 224 225 228 233 237 238 237 236 236 237 237 236 236 236 237 237 238 243 249 256 265 297 317 318 321 336 289 262 271 279 285 286 284 254 231
171 173 195 226 228 216 221 229 225 236 238 241 241 241 239 239 239 239 243 240 238 237 238 238 239 242 248 254 257 275 326 348 36 270 262 269 273 281 287 282 270 249 230
191 186 188 215 234 237 215 230 241 243 243 245 246 246 246 243 241 245 244 241 239 235 235 235 236 239 250 252 239 268 283 270 281 280 259 271 276 284 298 280 253 241 230
208 179 215 238 222 227 223 218 241 248 255 251 249 246 249 247 246 242 243 247 245 240 238 238 237 242 248 252 193 234 254 249 242 249 270 268 272 286 304 291 252 234 228
121 160 188 198 212 220 210 208 222 242 257 264 268 265 255 253 250 246 239 237 250 244 246 241 241 245 252 248 214 232 240 239 242 242 263 272 285 283 295 293 264 239 231
248 225 204 222 239 247 233 215 220 228 229 250 260 266 270 267 261 250 243 231 224 247 247 242 237 234 248 251 237 240 230 237 238 244 251 265 270 282 291 285 271 258 239
263 252 240 220 236 249 248 246 229 232 234 227 245 254 265 266 259 258 245 233 227 229 243 240 236 223 226 236 232 246 247 249 245 245 250 254 270 274 276 283 262 269 251
234 236 246 239 244 247 253 255 251 238 237 249 240 235 245 255 258 248 243 235 226 220 229 225 230 221 225 228 236 241 250 245 259 264 250 239 263 270 268 264 265 270 250
249 247 242 241 231 236 247 246 244 243 248 251 243 251 236 249 254 250 238 226 231 226 220 229 225 230 226 235 229 238 243 250 262 251 244 251 247 255 264 264 259 259 246
237 224 223 234 234 235 243 250 254 251 254 255 256 237 242 240 251 248 235 230 224 228 223 225 228 230 229 231 240 241 255 262 255 236 262 256 261 263 255 246 243 247 252
233 221 230 241 239 236 231 233 246 252 253 256 257 258 230 237 241 245 238 227 221 227 225 225 226 226 228 231 239 243 252 253 255 265 270 274 264 264 245 242 247 236 238
225 220 225 236 244 248 247 252 248 252 255 256 250 251 229 233 237 237 244 223 225 219 224 219 225 221 228 227 232 239 258 260 249 249 256 260 268 267 260 234 237 226 225
219 225 240 249 251 255 258 252 252 250 233 229 228 239 232 228 233 240 242 218 222 221 218 218 223 224 230 225 232 230 245 240 239 253 244 249 260 264 260 233 229 222 208
244 234 239 245 249 251 256 249 240 241 237 224 221 230 234 228 229 236 230 199 211 222 216 222 229 231 213 225 230 220 242 252 255 251 259 275 285 264 246 228 220 251 231
254 257 259 255 248 250 254 247 236 228 231 220 217 220 231 233 220 220 213 202 212 215 212 223 231 216 215 221 219 251 245 279 258 250 275 273 290 261 237 224 218 218 212
259 255 252 245 241 241 239 240 234 222 220 211 208 219 228 228 212 211 209 202 211 217 196 223 219 213 223 215 222 234 234 242 234 245 249 268 280 237 222 233 212 206 198
Wind_Speed_850mb
41 43 35 32 30 34 40 41 42 40 39 37 35 32 29 25 22 20 18 17 14 13 11 9 7 6 4 6 8 10 11 12 13 13 10 8 6 5 4 0 7 2 4
58 52 41 33 29 31 36 40 41 41 37 34 32 30 26 24 19 17 14 13 13 13 11 10 9 11 7 5 7 9 10 9 10 10 9 10 8 10 8 5 7 10 9
62 57 48 37 31 30 31 34 37 38 37 33 30 27 24 21 19 15 13 10 8 9 10 9 9 10 9 7 6 8 9 10 8 5 6 6 7 15 17 11 8 9 9
60 57 51 41 35 32 32 32 33 34 34 32 29 27 24 20 17 14 11 9 7 7 7 8 8 8 7 7 6 6 8 10 11 11 15 16 5 21 22 18 13 10 9
56 55 52 43 38 35 35 33 33 32 33 32 30 28 25 22 18 15 12 9 7 5 4 4 3 5 6 7 7 7 8 8 12 14 16 6 13 17 18 17 17 15 11
53 50 47 43 39 36 34 34 33 33 32 32 32 30 27 25 22 18 14 12 11 9 7 4 3 1 3 6 9 11 11 8 8 13 5 18 16 32 21 22 24 20 17
51 49 46 41 40 38 36 35 35 36 36 35 34 32 30 28 24 21 19 17 16 14 11 10 9 5 5 7 10 12 13 10 3 2 4 19 19 23 26 28 27 27 23
49 49 47 41 41 41 39 37 37 37 38 37 36 35 33 31 29 27 25 24 22 20 17 19 14 10 9 8 9 10 12 11 9 18 3 12 27 29 33 26 22 28 27
39 44 45 43 43 43 42 39 38 38 39 38 38 38 38 37 35 33 33 32 28 27 25 23 18 15 14 12 12 12 12 11 11 13 16 22 36 31 31 30 22 25 28
46 36 42 44 43 46 47 46 42 41 40 40 42 43 43 42 42 41 40 39 36 34 32 28 23 21 18 16 17 14 16 18 13 11 11 20 31 33 32 35 31 22 25
57 48 39 39 40 44 48 49 48 47 45 45 47 49 50 51 51 49 49 46 44 42 38 34 29 27 23 22 19 11 19 26 6 15 12 24 33 35 37 37 35 24 25
55 52 47 44 36 32 40 42 43 49 50 51 54 56 59 59 58 54 56 53 51 48 45 40 36 33 30 28 22 16 15 7 5 17 31 36 35 39 43 43 35 27 25
48 55 55 47 41 32 28 34 33 37 43 49 57 61 63 64 62 61 61 58 61 58 55 51 46 42 38 33 19 30 14 7 9 14 31 34 37 36 37 34 32 29 27
53 41 2 44 49 37 29 42 41 44 41 41 44 49 61 67 66 67 66 64 62 62 62 58 54 47 43 33 22 24 20 23 30 18 31 34 32 33 33 30 27 30 29
21 29 42 73 42 32 43 44 49 46 39 39 41 40 43 52 55 62 65 61 64 53 53 62 56 44 37 27 27 35 38 33 30 30 32 35 38 35 35 29 22 28 31
13 12 16 25 36 40 38 47 51 49 55 47 47 47 49 55 52 51 56 64 58 58 48 44 47 43 45 29 32 42 40 40 34 31 31 38 40 37 35 31 26 25 30
46 34 31 25 28 44 44 42 42 45 48 54 55 55 57 63 60 55 55 60 63 54 51 50 45 45 52 44 49 36 44 43 47 43 41 41 40 41 36 32 29 27 30
36 36 34 37 38 51 58 56 51 45 46 47 49 55 64 68 71 62 59 64 63 65 51 50 50 52 47 52 42 41 46 48 40 42 37 39 40 42 37 41 32 27 30
64 60 58 59 52 40 44 46 49 50 49 49 47 51 58 68 70 67 62 62 57 60 70 55 64 53 56 45 48 38 48 46 44 37 27 33 38 35 35 42 36 30 27
56 55 50 53 60 48 40 49 54 56 60 56 56 58 56 63 70 68 61 59 58 57 62 61 59 65 55 47 39 42 39 39 34 36 32 49 60 56 56 41 35 27 28
77 66 59 65 55 49 50 57 66 71 68 63 60 58 56 63 69 70 63 61 64 60 65 58 56 53 55 52 38 43 42 38 38 39 37 41 48 47 40 49 41 32 29
57 51 52 57 61 58 61 71 69 56 52 53 53 54 55 63 67 67 62 57 56 62 58 59 59 62 62 38 49 41 31 27 38 42 35 34 41 42 37 41 42 37 33
44 49 53 60 62 59 60 66 64 59 62 43 51 51 52 61 67 68 57 56 56 56 56 63 57 63 48 48 50 32 13 14 15 26 28 33 43 45 31 32 44 20 35
54 46 44 49 56 62 60 67 65 65 65 64 46 51 54 62 67 60 47 56 48 50 55 55 65 64 52 42 30 32 30 26 9 9 15 20 25 25 25 37 36 26 43
62 67 73 71 72 71 72 62 72 61 54 40 48 51 52 51 52 55 54 57 51 48 50 51 43 44 51 41 29 23 25 15 26 27 22 20 29 19 22 31 35 45 37
81 70 65 72 78 77 76 67 64 59 58 48 51 58 62 56 55 55 54 54 47 44 42 45 35 46 41 28 27 20 21 17 25 27 25 25 19 14 21 18 29 30 31
Wind_Direction_850mb
147 147 155 161 156 149 143 144 142 141 139 139 138 136 135 130 127 123 118 113 110 103 93 82 64 43 329 279 261 262 265 267 271 268 275 298 319 331 315 188 141 196 180
150 145 153 166 163 156 152 153 153 149 148 148 145 142 144 142 143 137 130 126 119 111 104 97 89 77 58 15 336 313 300 289 284 283 277 274 298 309 290 263 223 209 211
149 145 154 169 171 163 160 162 163 160 157 156 153 152 155 158 155 158 154 147 135 115 104 95 87 80 70 57 28 4 348 341 330 329 21 9 315 322 294 260 261 249 220
149 151 158 167 174 169 168 174 175 174 170 167 167 168 170 173 166 171 172 168 157 145 117 88 67 66 69 56 38 25 18 15 24 60 77 50 223 286 298 263 253 249 252
153 156 157 170 182 178 176 180 184 185 184 183 184 186 186 185 187 186 187 189 184 179 154 126 87 50 31 27 15 7 17 33 68 101 61 295 212 271 272 271 250 240 243
158 165 169 179 189 192 188 188 191 195 196 197 200 199 198 202 201 199 200 202 208 210 201 203 229 304 355 348 354 348 351 13 97 98 16 304 289 259 270 275 249 248 241
161 172 175 188 197 200 199 197 200 201 206 207 210 213 211 213 214 212 214 215 220 221 219 224 231 254 292 323 333 333 331 327 269 75 139 282 274 287 290 284 256 236 242
170 174 174 187 201 206 207 205 206 210 213 215 217 221 222 221 222 224 224 226 226 227 227 228 229 235 256 279 297 309 309 306 281 173 188 260 279 284 293 298 261 235 233
174 182 182 192 201 209 213 213 212 215 219 224 226 228 229 228 229 230 231 231 230 230 230 231 233 238 251 263 278 288 299 298 294 267 208 267 265 280 290 302 284 245 230
174 189 200 200 206 210 215 217 219 220 225 229 234 235 234 235 234 234 235 234 232 234 234 235 239 242 248 264 278 294 306 306 309 14 241 274 265 274 281 290 290 252 233
175 179 217 217 210 215 218 222 224 225 228 233 237 238 237 236 236 237 237 236 236 236 237 237 238 243 249 256 265 297 317 318 321 336 289 262 271 279 285 286 284 254 231
171 173 195 226 228 216 221 229 225 236 238 241 241 241 239 239 239 239 243 240 238 237 238 238 239 242 248 254 257 275 326 348 36 270 262 269 273 281 287 282 270 249 230
191 186 188 215 234 237 215 230 241 243 243 245 246 246 246 243 241 245 244 241 239 235 235 235 236 239 250 252 239 268 283 270 281 280 259 271 276 284 298 280 253 241 230
208 179 215 238 222 227 223 218 241 248 255 251 249 246 249 247 246 242 243 247 245 240 238 238 237 242 248 252 193 234 254 249 242 249 270 268 272 286 304 291 252 234 228
121 160 188 198 212 220 210 208 222 242 257 264 268 265 255 253 250 246 239 237 250 244 246 241 241 245 252 248 214 232 240 239 242 242 263 272 285 283 295 293 264 239 231
248 225 204 222 239 247 233 215 220 228 229 250 260 266 270 267 261 250 243 231 224 247 247 242 237 234 248 251 237 240 230 237 238 244 251 265 270 282 291 285 271 258 239
263 252 240 220 236 249 248 246 229 232 234 227 245 254 265 266 259 258 245 233 227 229 243 240 236 223 226 236 232 246 247 249 245 245 250 254 270 274 276 283 262 269 251
234 236 246 239 244 247 253 255 251 238 237 249 240 235 245 255 258 248 243 235 226 220 229 225 230 221 225 228 236 241 250 245 259 264 250 239 263 270 268 264 265 270 250
249 247 242 241 231 236 247 246 244 243 248 251 243 251 236 249 254 250 238 226 231 226 220 229 225 230 226 235 229 238 243 250 262 251 244 251 247 255 264 264 259 259 246
237 224 223 234 234 235 243 250 254 251 254 255 256 237 242 240 251 248 235 230 224 228 223 225 228 230 229 231 240 241 255 262 255 236 262 256 261 263 255 246 243 247 252
233 221 230 241 239 236 231 233 246 252 253 256 257 258 230 237 241 245 238 227 221 227 225 225 226 226 228 231 239 243 252 253 255 265 270 274 264 264 245 242 247 236 238
225 220 225 236 244 248 247 252 248 252 255 256 250 251 229 233 237 237 244 223 225 219 224 219 225 221 228 227 232 239 258 260 249 249 256 260 268 267 260 234 237 226 225
219 225 240 249 251 255 258 252 252 250 233 229 228 239 232 228 233 240 242 218 222 221 218 218 223 224 230 225 232 230 245 240 239 253 244 249 260 264 260 233 229 222 208
244 234 239 245 249 251 256 249 240 241 237 224 221 230 234 228 229 236 230 199 211 222 216 222 229 231 213 225 230 220 242 252 255 251 259 275 285 264 246 228 220 251 231
254 257 259 255 248 250 254 247 236 228 231 220 217 220 231 233 220 220 213 202 212 215 212 223 231 216 215 221 219 251 245 279 258 250 275 273 290 261 237 224 218 218 212
259 255 252 245 241 241 239 240 234 222 220 211 208 219 228 228 212 211 209 202 211 217 196 223 219 213 223 215 222 234 234 242 234 245 249 268 280 237 222 233 212 206 198